Regional Weather Roundup
Issued by NWS

Home | Current Version | Previous Version | Text Only | Print | Product List | Glossary On
Versions: 1 2 3 4 5 6 7 8 9 10 11 12 13 14 15 16 17 18 19 20 21 22 23 24 25 26 27 28 29 30 31 32 33 34 35 36 37 38 39 40 41 42 43 44 45 46 47 48 49 50
000
ASHW40 PHFO 230433
RWRHI

WEATHER ROUNDUP FOR HAWAII
NATIONAL WEATHER SERVICE HONOLULU HI
600 PM HST SUN JAN 22 2017

THIS IS AN AUTOMATED REPORT THAT HAS NOT BEEN QUALITY CONTROLLED.

NOTE..."FAIR" INDICATES FEW OR NO CLOUDS BELOW 12,000 FEET WITH NO
SIGNIFICANT WEATHER AND/OR OBSTRUCTIONS TO VISIBILITY.

* - THESE SITES REPORT LIMITED FIELDS

HIZ001>004-230500-
KAUAI-NIIHAU-

CITY           SKY/WX    TMP DP  RH WIND       PRES   REMARKS
LIHUE APT      CLOUDY    74  61  63 NE20      30.18R
PORT ALLEN*      N/A     75 N/A N/A E24G32      N/A
POIPU*           N/A     75 N/A N/A NE10G21     N/A
PRINCEVILLE*     N/A     72 N/A N/A SE10G18     N/A
KOKOLE POINT*  NOT AVBL
MOLOAA DAIRY*    N/A     72  61  68 E7G17       N/A
WAIMEA HTS*    NOT AVBL
PUU OPAE*      NOT AVBL
PUU LUA*       NOT AVBL
MAKAHA RIDGE*    N/A     68  52  56 E3G15       N/A
$$

HIZ005>011-230500-
OAHU-

CITY           SKY/WX    TMP DP  RH WIND       PRES   REMARKS
HONOLULU       MOCLDY    75  58  55 NE21G30   30.12R
KALAELOA       PTCLDY    76  59  55 E10G20    30.13R
KANEOHE MCB    MOCLDY    75  60  58 NE14G21   30.14
WHEELER FIELD  FAIR      70  59  68 E20       30.12S
BELLOWS*         N/A    N/A N/A N/A NE25G32     N/A
KAHUKU*          N/A    N/A N/A N/A NE16G29     N/A
WHEELER*       NOT AVBL
WAIANAE HARBOR NOT AVBL
DILLINGHAM*      N/A     79  61  53 MISG        N/A
KAHUKU TRN*      N/A     70  57  64 W20G37      N/A
KAWAILOA*        N/A     66  59  77 E15G31      N/A
KII*             N/A     73  63  68 E28G37      N/A
MAKUA RANGE*     N/A     81  64  57 W12G24      N/A
OAHU FOREST NW NOT AVBL
SCHOFIELD BRK*   N/A     73  64  73 MISG        N/A
SCHOFIELD S*   NOT AVBL
WAIANAE VLY*   NOT AVBL
KUAOKALA*      NOT AVBL
HONOULIUULI*   NOT AVBL
MOKUOLOE IS*   NOT AVBL
PALEHUA*       NOT AVBL
WAIAWA PHB*    NOT AVBL
$$

HIZ012>013-230500-
MOLOKAI-

CITY           SKY/WX    TMP DP  RH WIND       PRES   REMARKS
MOLOKAI AIRPT  PTCLDY    71  58  63 NE16G22   30.10R
KALAUPAPA      NOT AVBL
MAKAPULAPAI*     N/A     73  63  68 E30G44      N/A
MOLOKAI 1*     NOT AVBL
PUU ALII*        N/A     53  53 100 NE5G20      N/A
$$

HIZ016-230500-
KAHOOLAWE-

CITY           SKY/WX    TMP DP  RH WIND       PRES   REMARKS
KAHOOLAWE*     NOT AVBL
HAKIOAWA*        N/A     69  60  72 MISG      30.52
HONOKANAIA*      N/A     75  59  57 NE23G45   30.04R
KANELOA*       NOT AVBL
KEALIALALO*    NOT AVBL
LUA MAKIKA*    NOT AVBL
$$

HIZ014>015-230500-
LANAI-

CITY           SKY/WX    TMP DP  RH WIND       PRES   REMARKS
LANAI CITY     PTCLDY    68  59  73 NE14      30.10
LANAI 1*       NOT AVBL
$$

HIZ017>028-230500-
MAUI-

CITY           SKY/WX    TMP DP  RH WIND       PRES   REMARKS
KAHULUI        PTCLDY    72  61  68 NE21G31   30.11R
KAPALUA-W MAUI LGT RAIN  72  57  60 NE28G41   30.10
HANA AIRPORT   CLOUDY    73  63  68 E13       30.21R
HANA*            N/A     73 N/A N/A E14G24      N/A
HALEAKALA SUMM   N/A     46  12  25 W6G18       N/A
MAALAEA BAY*     N/A     72 N/A N/A N22G32      N/A
HALEAKALA*     NOT AVBL
KAUPO GAP*     NOT AVBL
KULA 1*          N/A     58  44  59 NW2         N/A
$$

HIZ023>026-230500-
BIG ISLAND OF HAWAII COAST AND LOWER SLOPES-

CITY           SKY/WX    TMP DP  RH WIND       PRES   REMARKS
KAILUA KONA    PTCLDY    79  67  66 S8        30.04R
HILO           MOCLDY    70  63  78 W6        30.19R
HONOKAA*         N/A     64 N/A N/A VRB1        N/A
KAWAIHAE MWT*  NOT AVBL
KAWAIHAE*        N/A     79 N/A N/A W1        30.05R
SOUTH POINT*     N/A     68 N/A N/A N29G41      N/A
UPOLU AIRPORT* NOT AVBL
KAMUELA*       CLOUDY    61  57  88 NE26      30.19R
HAKALAU*         N/A     48  48 100 S3          N/A
KALOKO-HONOKO*   N/A     77  66  69 S3G12     30.05R
PALI 2*          N/A     61  55  82 SW22G35     N/A
KEALAKOMO*       N/A    N/A N/A N/A N20G31      N/A
KAUPULEHU*     NOT AVBL
KAPAPALA*      NOT AVBL
LOWER KAHUKU*    N/A     61  55  82 N3G20       N/A
PUHE CS*         N/A     81  59  47 W3G9        N/A
PUHO CS*         N/A     81  68  64 S3          N/A
PTA KEAMUKU*     N/A     57  54  88 CALM        N/A
WAIKOLOA*      NOT AVBL
$$

HIZ027>028-230500-
BIG ISLAND OF HAWAII INTERIOR AND SUMMMITS-

CITY           SKY/WX    TMP DP  RH WIND       PRES   REMARKS
BRADSHAW FIELD CLEAR     51  46  82 SE15G22   30.37R
MK VISITOR CEN   N/A     48  18  29 SE7         N/A
MAUNA KEA*       N/A     30  12  47 CALM        N/A
MAUNA LOA*       N/A    N/A N/A N/A MISG        N/A
MAUNA LOA 1*   NOT AVBL
PTA KIPUKA*      N/A     73  64  73 SW6G15      N/A
PTA RANGE 17*    N/A     57  46  67 SE21G35     N/A
PTA WEST*        N/A     63  46  55 SE22G38     N/A
NENE CABIN*      N/A     48  48 100 E5G12       N/A
AHUMOA*        NOT AVBL
PTA PORTABLE*  NOT AVBL
PUU MALI*        N/A     57 N/A N/A SE3         N/A
$$

HIC003-230500-
NORTHWEST ISLANDS-

CITY           SKY/WX    TMP DP  RH WIND       PRES   REMARKS
MIDWAY ISLAND  CLOUDY    64  61  88 N9        30.14R
MIDWAY NOS*      N/A     66 N/A N/A MISG      30.11R
FRENCH FRIGATE NOT AVBL
$$

PHZ110>124-180-230500-
BUOY REPORTS

STATION/POSITION TIME  TEMP    WIND        PRES    WAVE   SWELL
                       AIR SEA DIR/SP/G            HT/PER HT/DIR
                 (UTC) (F)     (DEG/KT/KT) (MB)    (FT/S) (FT/D)
BUOY 51001       0410   74 75  110/ 17/ 23 1022.4
BUOY 51101       0350   74 75  100/ 19/ 23 1022.4R  11/ 9   8/ 90
BUOY 51100       NOT AVBL
BUOY 51002       0410   75 78   70/ 25/ 35 1016.5
BUOY 51003       0350   76 78   60/ 21/ 27 1017.9R  13/11   7/ 40
BUOY 51004       0350      77   60/ 21/ 25 1018.3R  14/ 9  11/ 60
BARBERS PT BUOY  NOT AVBL
WAIMEA BAY BUOY  0402      74                N/A    10/10   5/ 10
KAILUA BAY BUOY  0404      76                N/A    13/10   5/ 20
LANAI BUOY       0415      77                N/A     3/11   2/290
BARBERS PT 2     0409      77                N/A     5/ 9   2/300
PAUWELA MAUI     0409      75                N/A    11/10   5
HILO             0412      76                N/A    13/11   7/ 20
KANEOHE BAY BUOY 0406      75                N/A    12/10   5
HANALEI KAUAI    0352      75                N/A    12/10   5/ 20
KAHULUI HARBOR   0400   72 74   50/ 26/ 31 1019.8
HONOLULU HARBOR  0400   74 75   70/  9/ 19 1020.7
KILO NALU        NOT AVBL
HILO HARBOR      0400   70 74  270/  3/  5 1021.9
MOKUOLOE         0336   74 74   90/ 20/ 25 1021.1R
NAWILIWILI       0400   73      80/ 20/ 25 1021.3
WHOTS BUOY       NOT AVBL
BUOY 51028       NOT AVBL
$$

......................KEY........................................
  SKY/WX - SKY CONDITIONS/PRESENT WEATHER
  TMP    - TEMPERATURE IN FAHRENHEIT
  DWPT   - DEWPOINT IN FAHRENHEIT
  RH     - RELATIVE HUMIDITY IN PERCENT
  WIND   - DIRECTION AND SPEED /MPH FOR ISLANDS...KTS FOR BUOYS/
  PRES   - MEAN SEA LEVEL PRESSURE IN INCHES OF HG
  VSB    - VISIBILITY IN MILES
  HX     - HEAT INDEX
  WCI    - WIND CHILL INDEX
  VRB    - VARIABLE WIND DIRECTION
  N/A    - NOT AVAILABLE




USA.gov is the U.S. government's official web portal to all federal, state and local government web resources and services.